Erie, PA

6:35 PM EDT on August 29, 2016 (GMT -0400)
Erie International

Weather History for KERI - March, 2014

Change the Weather History Date:

Saturday, March 15, 2014

  Actual Average Record
Temperature  
Mean Temperature 34 °F 35 °F  
Max Temperature 45 °F 43 °F 81 °F (1990)
Min Temperature 23 °F 27 °F 6 °F (1960)
Degree Days  
Heating Degree Days 31 30  
Month to date heating degree days 592 483  
Since 1 July heating degree days 5413 4848  
Cooling Degree Days 0 0  
Month to date cooling degree days 0 0  
Year to date cooling degree days 0 0  
Moisture  
Dew Point 26 °F    
Average Humidity 68    
Maximum Humidity 82    
Minimum Humidity 53    
Precipitation  
Precipitation T in 0.09 in 0.71 in (1944)
Month to date precipitation 1.34 1.35  
Year to date precipitation 7.33 6.69  
Snow  
Snow T in 0.40 in - ()
Month to date snowfall 9.8 7.9  
Since 1 July snowfall 130.4 91.9  
Snow Depth 0.00 in    
Sea Level Pressure  
Sea Level Pressure 29.94 in    
Wind  
Wind Speed 12 mph (West)    
Max Wind Speed 24 mph    
Max Gust Speed 36 mph    
Visibility 10 miles    
Events Snow    
T = Trace of Precipitation, MM = Missing Value Source: NWS Daily Summary

Daily Weather History Graph

Daily Weather History Graph

Search for Another Location

Airport or City:

Trip Planner

Search our weather history database for the weather conditions in past years. The results will help you decide how hot, cold, wet, or windy it might be!

Date:

Astronomy

Mar. 15, 2014 Rise Set
Actual Time 7:32 AM EDT 7:27 PM EDT
Civil Twilight 7:04 AM EDT 7:55 PM EDT
Nautical Twilight 6:32 AM EDT 8:27 PM EDT
Astronomical Twilight 5:59 AM EDT 9:00 PM EDT
Moon 6:44 PM EDT (3/15) 6:44 AM EDT (3/15)
Length of Visible Light 12h 50m
Length of Day
11h 54m
Waxing Gibbous, 99% of the Moon is Illuminated
Mar 15
Waxing Gibbous
Mar 16
Full
Mar 23
Last Quarter
Mar 30
New
Apr 7
First Quarter

Hourly Weather History & Observations

Time (EDT) Temp. Windchill Dew Point Humidity Pressure Visibility Wind Dir Wind Speed Gust Speed Precip Events Conditions
12:51 AM 46.0 °F 38.5 °F 30.0 °F 54% 29.68 in 10.0 mi WSW 19.6 mph 33.4 mph N/A   Mostly Cloudy
1:51 AM 43.0 °F 34.2 °F 30.9 °F 62% 29.71 in 10.0 mi West 20.7 mph 31.1 mph N/A   Overcast
2:51 AM 39.9 °F 30.5 °F 30.0 °F 68% 29.73 in 10.0 mi WSW 19.6 mph 29.9 mph N/A   Overcast
3:51 AM 37.9 °F 29.6 °F 30.0 °F 73% 29.74 in 10.0 mi WSW 13.8 mph 28.8 mph N/A   Overcast
4:51 AM 39.9 °F 32.1 °F 28.0 °F 63% 29.74 in 10.0 mi WSW 13.8 mph 26.5 mph N/A   Overcast
5:17 AM 39.2 °F 30.2 °F 28.4 °F 65% 29.74 in 10.0 mi WSW 17.3 mph 28.8 mph N/A   Overcast
5:51 AM 39.9 °F 31.4 °F 28.0 °F 63% 29.76 in 10.0 mi WSW 16.1 mph 26.5 mph N/A   Overcast
6:51 AM 39.9 °F 31.8 °F 28.9 °F 65% 29.78 in 10.0 mi WSW 15.0 mph 25.3 mph N/A   Overcast
7:13 AM 39.2 °F 30.2 °F 28.4 °F 65% 29.78 in 10.0 mi WSW 17.3 mph 29.9 mph N/A   Overcast
7:51 AM 39.0 °F 30.6 °F 28.9 °F 67% 29.80 in 10.0 mi WSW 15.0 mph 33.4 mph N/A   Overcast
8:51 AM 37.9 °F 27.9 °F 28.9 °F 70% 29.83 in 10.0 mi WSW 19.6 mph 32.2 mph N/A   Overcast
9:51 AM 37.0 °F 26.7 °F 30.0 °F 76% 29.86 in 10.0 mi WSW 19.6 mph 27.6 mph 0.00 in   Overcast
10:51 AM 36.0 °F 26.3 °F 30.0 °F 79% 29.89 in 10.0 mi WSW 16.1 mph 32.2 mph 0.00 in   Overcast
11:18 AM 35.6 °F 25.2 °F 30.2 °F 81% 29.89 in 10.0 mi WSW 18.4 mph 31.1 mph N/A   Overcast
11:49 AM 35.6 °F 26.2 °F 30.2 °F 81% 29.91 in 10.0 mi WSW 15.0 mph 29.9 mph N/A   Overcast
11:51 AM 36.0 °F 27.5 °F 30.0 °F 79% 29.92 in 10.0 mi West 12.7 mph 29.9 mph N/A   Overcast
12:51 PM 35.1 °F 26.4 °F 28.9 °F 78% 29.97 in 8.0 mi West 12.7 mph 21.9 mph N/A   Overcast
1:21 PM 33.8 °F 24.8 °F 28.4 °F 81% 29.97 in 8.0 mi West 12.7 mph 20.7 mph N/A   Overcast
1:43 PM 33.8 °F 25.8 °F 28.4 °F 81% 29.99 in 10.0 mi West 10.4 mph - 0.00 in Snow Light Snow
1:51 PM 33.1 °F 24.9 °F 26.1 °F 75% 30.01 in 9.0 mi West 10.4 mph 20.7 mph 0.00 in   Overcast
2:06 PM 33.8 °F 25.8 °F 24.8 °F 70% 30.00 in 10.0 mi West 10.4 mph 18.4 mph N/A   Overcast
2:51 PM 33.1 °F 24.9 °F 25.0 °F 72% 30.04 in 10.0 mi West 10.4 mph - N/A   Overcast
3:51 PM 35.1 °F 25.5 °F 24.1 °F 64% 30.07 in 10.0 mi West 15.0 mph 18.4 mph N/A   Mostly Cloudy
4:51 PM 32.0 °F 23.6 °F 21.9 °F 66% 30.09 in 10.0 mi WNW 10.4 mph 18.4 mph N/A   Overcast
5:51 PM 30.9 °F 25.2 °F 21.0 °F 67% 30.12 in 10.0 mi NW 5.8 mph - N/A   Overcast
6:51 PM 30.0 °F 24.1 °F 19.9 °F 66% 30.14 in 10.0 mi NW 5.8 mph - N/A   Overcast
7:51 PM 30.0 °F 25.2 °F 19.0 °F 64% 30.16 in 10.0 mi NW 4.6 mph - N/A   Overcast
8:51 PM 30.0 °F 24.1 °F 18.0 °F 61% 30.18 in 10.0 mi NNW 5.8 mph - N/A   Overcast
9:51 PM 28.9 °F 21.9 °F 18.0 °F 64% 30.20 in 10.0 mi North 6.9 mph - N/A   Overcast
10:51 PM 27.0 °F 20.5 °F 16.0 °F 63% 30.21 in 10.0 mi North 5.8 mph - N/A   Mostly Cloudy
11:51 PM 26.1 °F 19.4 °F 15.1 °F 63% 30.23 in 10.0 mi North 5.8 mph - N/A   Partly Cloudy